Regional Weather Roundup
Issued by NWS Jackson, KY

Home | Current Version | Previous Version | Text Only | Print | Product List | Glossary On
Versions: 1 2 3 4 5 6 7 8 9 10 11 12 13 14 15 16 17 18 19 20 21 22 23 24 25 26 27 28 29 30 31 32 33 34 35 36 37 38 39 40 41 42 43 44 45 46 47 48 49 50
000
ASUS43 KJKL 261910
RWRJKL

EAST KENTUCKY HOURLY WEATHER ROUNDUP
NATIONAL WEATHER SERVICE JACKSON KY
200 PM EST SUN FEB 26 2017

NOTE: "FAIR" INDICATES FEW OR NO CLOUDS BELOW 12,000 FEET WITH
NO SIGNIFICANT WEATHER AND/OR OBSTRUCTIONS TO VISIBILITY.

* THESE REPORTS ARE NOT UNDER NWS QUALITY CONTROL AND MAY NOT
  REPORT WEATHER SUCH AS PRECIPITATION AND FOG.

KYZ079-080-083-085-087-088-110-112-115-119-120-262000
...EASTERN KENTUCKY...

CITY           SKY/WX    TMP DP  RH WIND       PRES   REMARKS
JACKSON        SUNNY     43  14  31 CALM      30.19F
LONDON         SUNNY     44  13  28 SE5       30.21F
SOMERSET*      SUNNY     45  14  29 CALM      30.22F
MONTICELLO*    SUNNY     48  17  29 W14       30.22F
WILLIAMSBURG*  CLEAR     46  16  29 S6        30.21F
MIDDLESBORO*   SUNNY     48  18  30 S8        30.22F
HARLAN APT*    CLEAR     46  12  25 CALM      30.19F
PIKE CO APT*     N/A     42  15  33 S6        30.19F
BIG SANDY APT* CLEAR     44  15  31 SW6       30.20S
MOREHEAD APT*  CLEAR     43  14  31 VRB5      30.21F
ASHLAND*       SUNNY     36  19  51 CALM      30.20F
$$

KYZ035-036-041-042-044-050-067-078-099-262000
...CENTRAL KENTUCKY...

CITY           SKY/WX    TMP DP  RH WIND       PRES   REMARKS
FLEMING/MASON* SUNNY     42  20  41 S8        30.20F
DANVILLE*      SUNNY     45  18  33 SW8       30.20F
LEXINGTON      SUNNY     46  13  26 VRB5      30.19F
FRANKFORT      SUNNY     46  12  25 S9        30.18F
LOUISVILLE     MOSUNNY   48  11  22 S9        30.19F
LEBANON*         N/A     46  10  23 S8        30.20F
GLASGOW*       SUNNY     49  17  28 S5        30.20F
BOWLING GREEN  SUNNY     51  15  23 VRB7      30.20F
$$

KYZ091>093-OHZ055-061-077-WVZ005-015-034-035-042-262000
...SOUTHERN OHIO/WEST VIRGINIA...

CITY           SKY/WX    TMP DP  RH WIND       PRES   REMARKS
COVINGTON      MOSUNNY   44  14  29 SW8       30.16F
COLUMBUS       MOSUNNY   40  20  44 SW13G20   30.16F WCI  32
DAYTON         PTSUNNY   41  17  38 SW12      30.14F
WILMINGTON     SUNNY     41  18  39 S15       30.15F
HUNTINGTON     SUNNY     43  14  31 S8        30.20F
CHARLESTON     SUNNY     44  11  26 NW9       30.19F
PINEVILLE*     SUNNY     44   7  22 MISG      30.22F
BECKLEY        SUNNY     40  11  30 W14       30.14S WCI  32
BLUEFIELD      SUNNY     37  10  32 NW10G17   30.14F WCI  30
LOGAN CO APT*    N/A     41  12  30 VRB5      30.17F
$$

VAZ002-007-008-TNZ017-027-036-066-071-262000
...SOUTHWEST VIRGINIA/EAST TENNESSEE...

CITY           SKY/WX    TMP DP  RH WIND       PRES   REMARKS
WISE*          SUNNY     41  10  28 CALM      30.17S
JONESVILLE*      N/A     45  10  24 S3        30.23F
ABINGDON*      SUNNY     43  14  30 CALM      30.18F
BRISTOL        SUNNY     44  16  32 SW9       30.21F
MORRISTOWN*    CLEAR     45  16  31 NW6       30.21S
SEVIERVILLE*   CLEAR     46   7  19 VRB3      30.21F
KNOXVILLE      SUNNY     48  15  26 CALM      30.21F
LAFOLLETTE*    CLEAR     46  14  27 CALM      30.24F
OAK RIDGE      SUNNY     49  13  23 VRB5      30.23F
CROSSVILLE     SUNNY     45  15  30 SE8       30.18F
NASHVILLE      MOSUNNY   53  15  22 SE8       30.20F
$$

...KEY TO REMARKS...
VSB - VISIBILITY IN MILES
WCI - WIND CHILL INDEX
HX  - HEAT INDEX

$$



USA.gov is the U.S. government's official web portal to all federal, state and local government web resources and services.